This is the latest recevied weather packets stored in our database for station/object HB9HFD-13. If no packets are shown the sender has not sent any weather packets the latest 10 day(s).
| Time | Temp. | Humidity | Pressure | Rain* | Wind** | Luminosity | Snow |
|---|---|---|---|---|---|---|---|
| 1778141830 | 13.89° C | 76% | 1012 hPa | 0 mm | - | - | - |
| 1778141530 | 13.33° C | 77% | 1012 hPa | 0 mm | - | - | - |
| 1778141230 | 12.78° C | 80% | 1012.1 hPa | 0 mm | - | - | - |
| 1778140929 | 12.78° C | 78% | 1012.2 hPa | 0 mm | - | - | - |
| 1778140629 | 12.78° C | 80% | 1012.1 hPa | 0 mm | - | - | - |
| 1778140329 | 12.22° C | 84% | 1012 hPa | 0 mm | - | - | - |
| 1778140029 | 11.67° C | 85% | 1012.1 hPa | 0 mm | - | - | - |
| 1778139728 | 11.11° C | 84% | 1012 hPa | 0 mm | - | - | - |
| 1778139428 | 11.11° C | 86% | 1012 hPa | 0 mm | - | - | - |
| 1778139128 | 11.11° C | 86% | 1012 hPa | 0 mm | - | - | - |
| 1778138828 | 10.56° C | 84% | 1012 hPa | 0 mm | - | - | - |
| 1778138527 | 11.11° C | 84% | 1012 hPa | 0 mm | - | - | - |
| 1778138227 | 11.11° C | 85% | 1012 hPa | 0 mm | - | - | - |
| 1778137927 | 11.11° C | 86% | 1012 hPa | 0 mm | - | - | - |
| 1778137627 | 11.11° C | 87% | 1011.9 hPa | 0 mm | - | - | - |
| 1778137326 | 10.56° C | 87% | 1011.9 hPa | 0 mm | - | - | - |
| 1778137026 | 10.56° C | 87% | 1011.9 hPa | 0 mm | - | - | - |
| 1778136726 | 10.56° C | 88% | 1011.9 hPa | 0 mm | - | - | - |
| 1778136425 | 10° C | 88% | 1011.9 hPa | 0 mm | - | - | - |
| 1778136125 | 10° C | 87% | 1011.9 hPa | 0 mm | - | - | - |
| 1778135825 | 10° C | 87% | 1012 hPa | 0 mm | - | - | - |
| 1778135525 | 10° C | 88% | 1011.9 hPa | 0 mm | - | - | - |
| 1778135224 | 9.44° C | 90% | 1011.9 hPa | 0 mm | - | - | - |
| 1778134924 | 9.44° C | 89% | 1011.8 hPa | 0 mm | - | - | - |
| 1778134624 | 9.44° C | 88% | 1011.8 hPa | 0 mm | - | - | - |
* Rain latest hour (hover to see other rain measurements)
** Current wind speed in m/s (hover to see current wind gust speed)